GW3513 Weather Reports


Display with metric or nautical units.
time (UTC)temp
F
wind
direction
speed
MPH
gust
MPH
rain 1hr
in
rain 24hr
in
rain mn
in
humidity
%
barometer
mb
20260507081843 36 161 0.0 0.0 0.00 0.00 0.00 99 1020.3
20260507081339 36 161 0.0 0.0 0.00 0.00 0.00 99 1020.2
20260507080836 37 161 0.0 0.0 0.00 0.00 0.00 99 1020.2
20260507080332 37 161 0.0 0.0 0.00 0.00 0.00 99 1020.4
20260507075828 36 161 0.0 0.0 0.00 0.00 0.00 99 1020.3
20260507075324 37 161 0.0 0.0 0.00 0.00 0.00 99 1020.3
20260507074820 37 161 0.0 0.0 0.00 0.00 0.00 99 1020.4
20260507074318 36 161 0.0 0.0 0.00 0.00 0.00 99 1020.3
20260507073815 36 161 0.0 0.0 0.00 0.00 0.00 99 1020.3
20260507073312 35 161 0.0 0.0 0.00 0.00 0.00 99 1020.5
20260507072809 36 161 0.0 0.0 0.00 0.00 0.00 99 1020.8
20260507072308 36 161 0.0 0.0 0.00 0.00 0.00 99 1020.7
20260507071804 36 161 0.0 0.0 0.00 0.00 0.00 99 1020.6
20260507071300 36 161 0.0 0.0 0.00 0.00 0.00 99 1020.6
20260507070757 36 161 0.0 0.0 0.00 0.00 0.00 99 1020.7
20260507070254 36 161 0.0 0.0 0.00 0.00 0.00 99 1020.7
20260507065751 36 161 0.0 0.0 0.00 0.00 0.00 98 1020.8
20260507065247 36 161 0.0 0.0 0.00 0.00 0.00 98 1021.0
20260507064745 36 161 0.0 0.0 0.00 0.00 0.00 98 1021.0
20260507064243 36 161 0.0 0.0 0.00 0.00 0.00 98 1021.0
20260507063740 36 161 0.0 0.0 0.00 0.00 0.00 98 1020.8
20260507063237 36 161 0.0 0.0 0.00 0.00 0.00 97 1020.9
20260507062734 37 161 0.0 0.0 0.00 0.00 0.00 97 1020.8
20260507062231 37 161 0.0 0.0 0.00 0.00 0.00 97 1020.8
20260507061730 37 161 0.0 0.0 0.00 0.00 0.00 97 1020.7
20260507061227 37 161 0.0 0.0 0.00 0.00 0.00 97 1020.9
20260507060725 37 161 0.0 0.0 0.00 0.00 0.00 96 1020.9
20260507060221 37 161 0.0 0.0 0.00 0.00 0.00 97 1021.0
20260507055718 38 161 0.0 0.0 0.00 0.00 0.00 97 1021.1
20260507055213 37 161 0.0 0.0 0.00 0.00 0.00 97 1021.0
20260507054709 37 161 0.0 0.0 0.00 0.00 0.00 96 1020.8
20260507054207 37 161 0.0 0.0 0.00 0.00 0.00 96 1021.0
20260507053704 37 161 0.0 0.0 0.00 0.00 0.00 96 1021.1
20260507053202 37 161 0.0 0.0 0.00 0.00 0.00 96 1021.0
20260507052701 37 161 0.0 0.0 0.00 0.00 0.00 95 1021.0
20260507052156 38 161 0.0 0.0 0.00 0.00 0.00 94 1020.9
20260507051654 38 161 0.0 0.0 0.00 0.00 0.00 94 1020.9
20260507051150 39 161 0.0 0.0 0.00 0.00 0.00 94 1020.9
20260507050647 39 161 0.0 0.0 0.00 0.00 0.00 94 1021.0
20260507050144 39 161 0.0 0.0 0.00 0.00 0.00 94 1020.7
20260507045641 39 161 0.0 0.0 0.00 0.00 0.00 94 1020.7
20260507045137 39 161 0.0 0.0 0.00 0.00 0.00 94 1020.7
20260507044635 40 161 0.0 0.0 0.00 0.00 0.00 94 1020.8
20260507044131 40 161 0.0 0.0 0.00 0.00 0.00 94 1020.9
20260507043627 39 161 0.0 0.0 0.00 0.00 0.00 93 1020.8
20260507043125 40 161 0.0 0.0 0.00 0.00 0.00 91 1020.7
20260507042621 40 161 0.0 0.0 0.00 0.00 0.00 90 1020.6
20260507042116 41 161 0.0 0.0 0.00 0.00 0.00 90 1020.6
20260507041613 41 161 0.0 0.0 0.00 0.00 0.00 90 1020.5
20260507041110 41 161 0.0 0.0 0.00 0.00 0.00 89 1020.6
20260507040607 41 161 0.0 0.0 0.00 0.00 0.00 89 1020.6
20260507035559 42 161 0.0 0.0 0.00 0.00 0.00 89 1020.9
20260507035055 42 161 0.0 0.0 0.00 0.00 0.00 87 1020.6
20260507034552 42 161 0.0 0.0 0.00 0.00 0.00 87 1020.6
20260507034050 42 161 0.0 0.0 0.00 0.00 0.00 84 1020.4
20260507033548 43 161 0.0 0.0 0.00 0.00 0.00 83 1020.6
20260507033044 43 161 0.0 0.0 0.00 0.00 0.00 82 1020.3
20260507032542 44 161 0.0 0.0 0.00 0.00 0.00 82 1020.4
20260507032038 45 161 0.0 0.0 0.00 0.00 0.00 81 1020.5
20260507031535 46 161 0.0 0.0 0.00 0.00 0.00 77 1020.3
20260507031032 47 161 0.0 0.0 0.00 0.00 0.00 72 1020.4
20260507030528 46 161 0.0 0.0 0.00 0.00 0.00 71 1020.4
20260507030026 46 161 0.0 0.0 0.00 0.00 0.00 75 1020.2
20260507025523 45 161 0.0 0.0 0.00 0.00 0.00 75 1020.3
20260507025020 45 161 0.0 0.0 0.00 0.00 0.00 75 1020.1
20260507024518 45 161 0.0 0.0 0.00 0.00 0.00 74 1020.2
20260507024014 46 161 0.0 0.0 0.00 0.00 0.00 74 1020.2
20260507023510 46 161 0.0 0.0 0.00 0.00 0.00 73 1020.1
20260507023003 46 161 0.0 0.0 0.00 0.00 0.00 72 1020.1
20260507022459 47 161 0.0 0.0 0.00 0.00 0.00 71 1020.2
20260507021954 48 161 0.0 0.0 0.00 0.00 0.00 70 1020.1
20260507021450 48 161 0.0 0.0 0.00 0.00 0.00 70 1019.9
20260507020947 48 161 0.0 0.0 0.00 0.00 0.00 69 1019.9
20260507020444 49 161 0.0 0.0 0.00 0.00 0.00 66 1020.0
20260507015941 50 161 0.0 0.0 0.00 0.00 0.00 65 1019.9
20260507015440 50 161 0.0 0.0 0.00 0.00 0.00 64 1019.9
20260507014936 51 161 0.0 0.0 0.00 0.00 0.00 63 1019.7
20260507014433 51 161 0.0 0.0 0.00 0.00 0.00 62 1019.6
20260507013929 52 161 0.0 0.0 0.00 0.00 0.00 61 1019.7
20260507013426 53 161 0.0 0.0 0.00 0.00 0.00 60 1019.7
20260507012924 53 161 0.0 0.0 0.00 0.00 0.00 59 1019.6
20260507012420 53 161 0.0 0.0 0.00 0.00 0.00 59 1019.6
20260507011916 54 161 0.0 0.0 0.00 0.00 0.00 58 1019.6
20260507011413 54 161 0.0 0.0 0.00 0.00 0.00 57 1019.5
20260507010908 54 161 0.0 0.0 0.00 0.00 0.00 57 1019.6
20260507010403 55 161 0.0 0.0 0.00 0.00 0.00 56 1019.6
20260507005901 55 161 0.0 0.0 0.00 0.00 0.00 54 1019.4
20260507005357 56 161 0.0 0.0 0.00 0.00 0.00 52 1019.6
20260507004854 56 161 0.0 0.0 0.00 0.00 0.00 52 1019.3
20260507004351 57 161 0.0 0.0 0.00 0.00 0.00 50 1019.2
20260507003850 57 161 0.0 0.0 0.00 0.00 0.00 49 1019.2
20260507003343 57 161 0.0 0.0 0.00 0.00 0.00 49 1019.3
20260507002839 58 161 0.0 0.0 0.00 0.00 0.00 47 1019.0
20260507002335 59 161 0.0 0.0 0.00 0.00 0.00 50 1019.2
20260507001832 59 161 0.0 0.0 0.00 0.00 0.00 46 1019.0
20260507001329 60 161 0.0 0.0 0.00 0.00 0.00 46 1019.1
20260507000825 62 161 0.0 0.0 0.00 0.00 0.00 46 1019.1
20260507000321 62 161 0.0 0.0 0.00 0.00 0.00 44 1018.9
20260506235818 63 161 0.0 0.0 0.00 0.00 0.00 43 1018.6
20260506235314 64 161 0.0 0.0 0.00 0.00 0.00 43 1018.6
20260506234811 64 161 0.0 0.0 0.00 0.00 0.00 43 1018.4
20260506234308 64 161 0.0 0.0 0.00 0.00 0.00 42 1018.0
20260506233806 64 161 0.0 0.0 0.00 0.00 0.00 42 1017.9
20260506233256 65 161 0.0 0.0 0.00 0.00 0.00 40 1018.1
20260506232753 65 161 0.0 0.0 0.00 0.00 0.00 39 1018.2
20260506232248 65 161 0.0 0.0 0.00 0.00 0.00 40 1018.2
20260506231745 65 161 0.0 0.0 0.00 0.00 0.00 41 1018.2
20260506231244 66 161 0.0 0.0 0.00 0.00 0.00 39 1018.3
20260506230740 68 161 0.0 0.0 0.00 0.00 0.00 39 1018.3
20260506230237 67 161 0.0 0.0 0.00 0.00 0.00 38 1018.2
20260506225734 68 161 0.0 0.0 0.00 0.00 0.00 37 1018.3
20260506225231 68 161 0.0 0.0 0.00 0.00 0.00 37 1018.3
20260506224727 68 161 0.0 0.0 0.00 0.00 0.00 36 1018.3
20260506224224 71 161 0.0 0.0 0.00 0.00 0.00 34 1018.1
20260506223720 73 161 0.0 0.0 0.00 0.00 0.00 32 1018.1
20260506223216 73 161 0.0 0.0 0.00 0.00 0.00 31 1018.2
20260506222714 73 161 0.0 0.0 0.00 0.00 0.00 35 1018.1
20260506222209 73 161 0.0 0.0 0.00 0.00 0.00 33 1017.9
20260506221707 74 161 0.0 0.0 0.00 0.00 0.00 33 1018.1
20260506221205 75 161 0.0 0.0 0.00 0.00 0.00 34 1017.9
20260506220702 73 161 0.0 0.0 0.00 0.00 0.00 37 1018.2
20260506220157 76 161 0.0 0.0 0.00 0.00 0.00 29 1018.1
20260506215653 76 161 0.0 0.0 0.00 0.00 0.00 30 1018.1
20260506215148 78 161 0.0 0.0 0.00 0.00 0.00 29 1018.0
20260506214646 80 161 0.0 0.0 0.00 0.00 0.00 29 1017.9
20260506214143 82 161 0.0 0.0 0.00 0.00 0.00 28 1018.0
20260506213642 82 161 0.0 0.0 0.00 0.00 0.00 29 1018.2
20260506213139 79 161 0.0 0.0 0.00 0.00 0.00 30 1018.2
20260506212636 78 161 0.0 0.0 0.00 0.00 0.00 30 1018.4
20260506212130 79 161 0.0 0.0 0.00 0.00 0.00 30 1018.5
20260506211626 83 161 0.0 0.0 0.00 0.00 0.00 29 1018.5
20260506211123 81 161 0.0 0.0 0.00 0.00 0.00 31 1018.4
20260506210620 81 161 0.0 0.0 0.00 0.00 0.00 29 1018.7
20260506210117 82 161 0.0 0.0 0.00 0.00 0.00 28 1018.7
20260506205614 81 161 0.0 0.0 0.00 0.00 0.00 29 1018.7
20260506205108 85 161 0.0 0.0 0.00 0.00 0.00 29 1018.6
20260506204607 81 161 0.0 0.0 0.00 0.00 0.00 30 1018.9
20260506204103 81 161 0.0 0.0 0.00 0.00 0.00 29 1018.9
20260506203602 83 161 0.0 0.0 0.00 0.00 0.00 27 1018.6
20260506203058 82 160 0.0 0.0 0.00 0.00 0.00 30 1018.5
20260506202556 81 161 0.0 0.0 0.00 0.00 0.00 32 1018.9
20260506202052 81 160 0.0 0.0 0.00 0.00 0.00 32 1018.9
20260506201549 81 160 0.0 0.0 0.00 0.00 0.00 33 1019.0
20260506201046 81 160 0.0 0.0 0.00 0.00 0.00 31 1019.0
20260506200542 84 160 0.0 0.0 0.00 0.00 0.00 29 1019.0
20260506200039 85 160 0.0 0.0 0.00 0.00 0.00 25 1019.3
20260506195536 83 160 0.0 0.0 0.00 0.00 0.00 32 1019.2
20260506195032 81 160 0.0 0.0 0.00 0.00 0.00 31 1019.4
20260506194530 79 160 0.0 0.0 0.00 0.00 0.00 31 1019.4
20260506194026 79 160 0.0 0.0 0.00 0.00 0.00 35 1019.4
20260506193523 79 160 0.0 0.0 0.00 0.00 0.00 32 1019.6
20260506193021 79 160 0.0 0.0 0.00 0.00 0.00 30 1019.3
20260506192517 82 160 0.0 0.0 0.00 0.00 0.00 31 1019.5
20260506192013 81 160 0.0 0.0 0.00 0.00 0.00 32 1019.6
20260506191510 81 160 0.0 0.0 0.00 0.00 0.00 36 1019.8
20260506191006 79 160 0.0 0.0 0.00 0.00 0.00 31 1019.8
20260506190503 77 160 0.0 0.0 0.00 0.00 0.00 33 1019.8
20260506190000 79 160 0.0 0.0 0.00 0.00 0.00 38 1019.8
20260506185458 79 160 0.0 0.0 0.00 0.00 0.00 35 1020.0
20260506184954 77 160 0.0 0.0 0.00 0.00 0.00 34 1020.1
20260506184451 75 160 0.0 0.0 0.00 0.00 0.00 36 1020.1
20260506183948 73 161 0.0 0.0 0.00 0.00 0.00 41 1020.4
20260506183444 72 160 0.0 0.0 0.00 0.00 0.00 40 1020.3
20260506182941 70 160 0.0 0.0 0.00 0.00 0.00 42 1020.4
20260506182438 70 160 0.0 0.0 0.00 0.00 0.00 42 1020.6
20260506181935 69 160 0.0 0.0 0.00 0.00 0.00 42 1020.8
20260506181434 68 160 0.0 0.0 0.00 0.00 0.00 46 1020.8
20260506180930 68 160 0.0 0.0 0.00 0.00 0.00 48 1020.9
20260506180426 68 160 0.0 0.0 0.00 0.00 0.00 44 1020.6
20260506175923 68 160 0.0 0.0 0.00 0.00 0.00 44 1020.5
20260506175420 65 160 0.0 0.0 0.00 0.00 0.00 51 1020.6
20260506174917 69 160 0.0 0.0 0.00 0.00 0.00 43 1020.6
20260506174414 67 160 0.0 0.0 0.00 0.00 0.00 52 1020.5
20260506173911 66 160 0.0 0.0 0.00 0.00 0.00 50 1020.6
20260506173408 66 160 0.0 0.0 0.00 0.00 0.00 50 1020.9
20260506172900 67 160 0.0 0.0 0.00 0.00 0.00 49 1020.7
20260506172356 67 160 0.0 0.0 0.00 0.00 0.00 50 1020.7
20260506171853 69 160 0.0 0.0 0.00 0.00 0.00 45 1020.9
20260506171350 69 160 0.0 0.0 0.00 0.00 0.00 48 1020.9
20260506170848 69 160 0.0 0.0 0.00 0.00 0.00 44 1020.7
20260506170343 68 160 0.0 0.0 0.00 0.00 0.00 50 1020.5
20260506165838 67 160 0.0 0.0 0.00 0.00 0.00 51 1020.1
20260506165335 65 160 0.0 0.0 0.00 0.00 0.00 52 1019.9
20260506164831 64 160 0.0 0.0 0.00 0.00 0.00 53 1020.2
20260506164327 64 160 0.0 0.0 0.00 0.00 0.00 53 1020.3
20260506163819 64 160 0.0 0.0 0.00 0.00 0.00 51 1020.2
20260506163314 66 160 0.0 0.0 0.00 0.00 0.00 51 1020.0
20260506162810 68 160 0.0 0.0 0.00 0.00 0.00 49 1020.1
20260506162308 69 160 0.0 0.0 0.00 0.00 0.00 47 1019.9
20260506161804 68 160 0.0 0.0 0.00 0.00 0.00 49 1020.0
20260506161301 67 160 0.0 0.0 0.00 0.00 0.00 52 1020.0
20260506160754 67 160 0.0 0.0 0.00 0.00 0.00 50 1020.0
20260506160250 64 160 0.0 0.0 0.00 0.00 0.00 58 1020.1
20260506155749 62 161 0.0 0.0 0.00 0.00 0.00 51 1020.1
20260506155246 62 160 0.0 0.0 0.00 0.00 0.00 56 1020.0
20260506153358 61 161 0.0 0.0 0.00 0.00 0.00 61 1019.7
20260506152855 61 161 0.0 0.0 0.00 0.00 0.00 58 1019.7
20260506152352 60 161 0.0 0.0 0.00 0.00 0.00 64 1019.4
20260506151851 59 161 0.0 0.0 0.00 0.00 0.00 63 1019.7
20260506151347 58 161 0.0 0.0 0.00 0.00 0.00 63 1019.8
20260506150845 57 161 0.0 0.0 0.00 0.00 0.00 68 1019.9
20260506150341 57 161 0.0 0.0 0.00 0.00 0.00 72 1020.0
20260506145838 56 161 0.0 0.0 0.00 0.00 0.00 69 1019.9
20260506145334 56 161 0.0 0.0 0.00 0.00 0.00 72 1019.8
20260506144832 56 161 0.0 0.0 0.00 0.00 0.00 73 1020.1
20260506144328 55 161 0.0 0.0 0.00 0.00 0.00 78 1020.0
20260506143827 53 161 0.0 0.0 0.00 0.00 0.00 77 1019.8
20260506143323 53 161 0.0 0.0 0.00 0.00 0.00 77 1019.9
20260506142822 52 161 0.0 0.0 0.00 0.00 0.00 79 1019.8
20260506142319 52 161 0.0 0.0 0.00 0.00 0.00 82 1019.6
20260506141818 51 161 0.0 0.0 0.00 0.00 0.00 80 1019.8
20260506141315 50 161 0.0 0.0 0.00 0.00 0.00 83 1020.0
20260506140813 50 161 0.0 0.0 0.00 0.00 0.00 83 1019.9
20260506140310 50 161 0.0 0.0 0.00 0.00 0.00 85 1019.8
20260506135807 49 161 0.0 0.0 0.00 0.00 0.00 87 1019.6
20260506135305 48 161 0.0 0.0 0.00 0.00 0.00 88 1019.8
20260506134800 48 161 0.0 0.0 0.00 0.00 0.00 88 1019.6
20260506134256 48 161 0.0 0.0 0.00 0.00 0.00 89 1019.8
20260506133753 48 161 0.0 0.0 0.00 0.00 0.00 89 1019.7
20260506133250 48 161 0.0 0.0 0.00 0.00 0.00 90 1019.5
20260506132747 48 161 0.0 0.0 0.00 0.00 0.00 91 1019.4
20260506132244 47 161 0.0 0.0 0.00 0.00 0.00 93 1019.3
20260506131742 47 161 0.0 0.0 0.00 0.00 0.00 95 1019.3
20260506131238 46 161 0.0 0.0 0.00 0.00 0.00 96 1019.5
20260506130735 46 161 0.0 0.0 0.00 0.00 0.00 97 1019.5
20260506130232 46 161 0.0 0.0 0.00 0.00 0.00 97 1019.6
20260506125730 45 161 0.0 0.0 0.00 0.00 0.00 98 1019.7
20260506125227 45 161 0.0 0.0 0.00 0.00 0.00 98 1019.7
20260506124726 45 161 0.0 0.0 0.00 0.00 0.00 98 1019.6
20260506124223 45 161 0.0 0.0 0.00 0.00 0.00 99 1020.0
20260506123720 44 160 0.0 0.0 0.00 0.00 0.00 99 1020.0
20260506123219 44 160 0.0 0.0 0.00 0.00 0.00 99 1019.9
20260506122715 44 160 0.0 0.0 0.00 0.00 0.00 99 1020.0
20260506122213 44 160 0.0 0.0 0.00 0.00 0.00 99 1019.9
20260506121710 44 160 0.0 0.0 0.00 0.00 0.00 99 1019.8
20260506121207 44 160 0.0 0.0 0.00 0.00 0.00 99 1019.5
20260506120704 44 160 0.0 0.0 0.00 0.00 0.00 99 1019.3
20260506120202 44 160 0.0 0.0 0.00 0.00 0.00 99 1019.1
20260506115700 44 160 0.0 0.0 0.00 0.00 0.00 99 1019.4
20260506115158 44 160 0.0 0.0 0.00 0.00 0.00 99 1019.2
20260506114655 44 160 0.0 0.0 0.00 0.00 0.00 99 1019.1
20260506114152 44 160 0.0 0.0 0.00 0.00 0.00 99 1019.1
20260506113651 44 160 0.0 0.0 0.00 0.00 0.00 99 1019.1
20260506113148 44 160 0.0 0.0 0.00 0.00 0.00 99 1018.9
20260506112644 44 160 0.0 0.0 0.00 0.00 0.00 99 1018.6
20260506112142 44 160 0.0 0.0 0.00 0.00 0.00 99 1018.5
20260506111639 44 160 0.0 0.0 0.00 0.00 0.00 99 1018.4
20260506111137 44 160 0.0 0.0 0.00 0.00 0.00 99 1018.1
20260506110634 44 160 0.0 0.0 0.00 0.00 0.00 99 1018.1
20260506110131 44 160 0.0 0.0 0.00 0.00 0.00 99 1018.1
20260506105628 44 160 0.0 0.0 0.00 0.00 0.00 99 1017.8
20260506105125 44 160 0.0 0.0 0.00 0.00 0.00 99 1017.5
20260506104623 44 160 0.0 0.0 0.00 0.00 0.00 99 1017.4
20260506104120 44 160 0.0 0.0 0.00 0.00 0.00 99 1017.6
20260506103617 44 160 0.0 0.0 0.00 0.00 0.00 99 1017.2
20260506103114 44 160 0.0 0.0 0.00 0.00 0.00 99 1017.6
20260506102612 44 160 0.0 0.0 0.00 0.00 0.00 99 1017.2
20260506102109 44 160 0.0 0.0 0.00 0.00 0.00 99 1017.1
20260506101606 44 160 0.0 0.0 0.00 0.00 0.00 98 1017.0
20260506101103 44 160 0.0 0.0 0.00 0.00 0.00 98 1017.1
20260506100601 44 160 0.0 0.0 0.00 0.00 0.00 97 1017.0
20260506100059 44 160 0.0 0.0 0.00 0.00 0.00 98 1017.2
20260506095558 44 160 0.0 0.0 0.00 0.00 0.00 98 1017.0
20260506095054 44 160 0.0 0.0 0.00 0.00 0.00 97 1016.9
20260506094551 44 160 0.0 0.0 0.00 0.00 0.00 97 1016.8
20260506094049 44 160 0.0 0.0 0.00 0.00 0.00 97 1017.1
20260506093547 44 160 0.0 0.0 0.00 0.00 0.00 97 1017.1
20260506093044 44 160 0.0 0.0 0.00 0.00 0.00 97 1016.4
20260506092542 44 160 0.0 0.0 0.00 0.00 0.00 97 1015.9
20260506092038 44 160 0.0 0.0 0.00 0.00 0.00 96 1016.4
20260506091537 44 160 0.0 0.0 0.00 0.00 0.00 96 1016.5
20260506091034 44 160 0.0 0.0 0.00 0.00 0.00 96 1016.7
20260506090532 44 160 0.0 0.0 0.00 0.00 0.00 96 1016.8
20260506090028 44 160 0.0 0.0 0.00 0.00 0.00 96 1016.4
20260506085525 44 160 0.0 0.0 0.00 0.00 0.00 95 1015.9
20260506085021 44 160 0.0 0.0 0.00 0.00 0.00 95 1016.0
20260506084518 44 160 0.0 0.0 0.00 0.00 0.00 95 1015.8
20260506084014 44 160 0.0 0.0 0.00 0.00 0.00 95 1015.9
20260506083512 44 160 0.0 0.0 0.00 0.00 0.00 96 1015.5
20260506083009 44 160 0.0 0.0 0.00 0.00 0.00 96 1015.0
20260506082506 44 160 0.0 0.0 0.00 0.00 0.00 96 1015.2